FLOCK 2E-10 (41572 NORAD) Tracking and Keplerian Element Data

This shows tracking and keplerian element data for the satellite.

Feedback or suggestion? Click here.




ElementValue
Catalog41572
NameFLOCK 2E-10
Epoch Orbit9998
Epoch Day59.08879125
Epoch Year2018
RAAN132.2961
Inclination51.6219
Eccentricity0.0002556
Argument of Perigee327.8609
Mean Anonmoly33.2166
Mean Motion16.41347157
Decay Rate0.09590036
L11 41572U 98067JW 18059.08879125 .09590036 12472-4 58925-3 0 9996
L22 41572 51.6219 132.2961 0002556 327.8609 33.2166 16.41347157 99987

Live tracking and technical data element details for FLOCK 2E-10 (NORAD 41572). FLOCK 2E-10 can be tracked NOW for your location showing map with azimuth and elevation plus other details from your city location.

Track the satellite on the map from your city or location and see movement details for azimuth, elevation, latitude, longitude, range, height, and movement on the map or in text.







IsCatalogInMostPopularTable: catalog: 41572, numindb: 118
Update: records affected: 1



GetName: 41572 FLOCK 2E-10

Hit Count: updated at: Mon, 19 Nov 2018 11:29:46 GMT